When you browse on this site, cookies collect data to enhance your experience and personalize the content and advertising you see.
Visit our Privacy Policy to learn more. By continuing to use the site, you agree to this use of cookies and data.
  • In Hungary
  • List of Countries
  • For 7 days
  • Water Temperature
  • Satellite Maps
  • Weather Map
  • News
  • Weather Widgets
  • user-avatar
    Login

    Hourly Weather Viesite

    Today, 26 June, Wednesday

    Time Temperature Precipitation Wind Pressure Humidity
    00:00 +16°C° 0 mm 1 mps 758 mmHg 77%
    01:00 +16°C° 0 mm 1 mps 758 mmHg 76%
    02:00 +16°C° 0 mm 1 mps 758 mmHg 78%
    03:00 +16°C° 0 mm 1 mps 757 mmHg 80%
    04:00 +18°C° 0 mm 1 mps 757 mmHg 82%
    05:00 +18°C° 0 mm 1 mps 756 mmHg 83%
    06:00 +19°C° 0 mm 1 mps 756 mmHg 81%
    07:00 +21°C° 0 mm 1 mps 756 mmHg 79%
    08:00 +22°C° 0 mm 1 mps 756 mmHg 77%
    09:00 +24°C° 0 mm 2 mps 755 mmHg 68%
    10:00 +26°C° 0 mm 2 mps 755 mmHg 59%
    11:00 +28°C° 0 mm 3 mps 754 mmHg 51%
    12:00 +28°C° 0 mm 3 mps 754 mmHg 50%
    13:00 +29°C° 0 mm 3 mps 754 mmHg 50%
    14:00 +29°C° 0 mm 3 mps 753 mmHg 49%
    15:00 +29°C° 0 mm 2 mps 752 mmHg 53%
    16:00 +28°C° 0 mm 2 mps 752 mmHg 56%
    17:00 +28°C° 0 mm 1 mps 751 mmHg 59%
    18:00 +26°C° 1 mm 1 mps 750 mmHg 69%
    19:00 +25°C° 1 mm 1 mps 750 mmHg 80%
    20:00 +23°C° 1 mm 2 mps 749 mmHg 91%
    21:00 +21°C° 2 mm 2 mps 748 mmHg 93%
    22:00 +20°C° 2 mm 2 mps 747 mmHg 95%
    23:00 +20°C° 2 mm 2 mps 747 mmHg 97%

    Tomorrow, 27 June, Thursday

    Time Temperature Precipitation Wind Pressure Humidity
    00:00 +20°C° 0.6 mm 2 mps 746 mmHg 97%
    01:00 +19°C° 0.6 mm 2 mps 745 mmHg 97%
    02:00 +19°C° 0.6 mm 2 mps 744 mmHg 98%
    03:00 +19°C° 0.9 mm 2 mps 744 mmHg 98%
    04:00 +18°C° 0.9 mm 3 mps 743 mmHg 98%
    05:00 +18°C° 0.9 mm 4 mps 743 mmHg 98%
    06:00 +18°C° 0.2 mm 4 mps 743 mmHg 96%
    07:00 +18°C° 0.2 mm 4 mps 743 mmHg 94%
    08:00 +16°C° 0.2 mm 5 mps 743 mmHg 92%
    09:00 +16°C° 0 mm 5 mps 743 mmHg 88%
    10:00 +16°C° 0 mm 5 mps 744 mmHg 84%
    11:00 +16°C° 0 mm 5 mps 744 mmHg 81%
    12:00 +16°C° 0 mm 5 mps 744 mmHg 77%
    13:00 +17°C° 0 mm 6 mps 745 mmHg 74%
    14:00 +17°C° 0 mm 6 mps 745 mmHg 70%
    15:00 +19°C° 0.1 mm 6 mps 745 mmHg 66%
    16:00 +19°C° 0.1 mm 6 mps 745 mmHg 62%
    17:00 +20°C° 0.1 mm 7 mps 745 mmHg 57%
    18:00 +17°C° 0 mm 6 mps 745 mmHg 60%
    19:00 +16°C° 0 mm 6 mps 746 mmHg 63%
    20:00 +15°C° 0 mm 5 mps 746 mmHg 67%
    21:00 +14°C° 0 mm 5 mps 746 mmHg 68%
    22:00 +13°C° 0 mm 5 mps 746 mmHg 70%
    23:00 +13°C° 0 mm 5 mps 746 mmHg 72%

    Day after tomorrow, 28 June, Friday

    Time Temperature Precipitation Wind Pressure Humidity
    00:00 +13°C° 0 mm 5 mps 746 mmHg 73%
    01:00 +13°C° 0 mm 4 mps 746 mmHg 74%
    02:00 +12°C° 0 mm 4 mps 746 mmHg 75%
    03:00 +12°C° 0 mm 4 mps 746 mmHg 74%
    04:00 +12°C° 0 mm 4 mps 747 mmHg 73%
    05:00 +12°C° 0 mm 4 mps 747 mmHg 72%
    06:00 +13°C° 0 mm 5 mps 747 mmHg 67%
    07:00 +14°C° 0 mm 5 mps 747 mmHg 61%
    08:00 +16°C° 0 mm 6 mps 747 mmHg 56%
    09:00 +16°C° 0 mm 6 mps 747 mmHg 52%
    10:00 +17°C° 0 mm 6 mps 747 mmHg 48%
    11:00 +19°C° 0 mm 6 mps 747 mmHg 43%
    12:00 +20°C° 0 mm 6 mps 748 mmHg 42%
    13:00 +20°C° 0 mm 7 mps 748 mmHg 40%
    14:00 +21°C° 0 mm 7 mps 748 mmHg 38%
    15:00 +20°C° 0 mm 6 mps 748 mmHg 38%
    16:00 +20°C° 0 mm 6 mps 748 mmHg 39%
    17:00 +20°C° 0 mm 6 mps 748 mmHg 39%
    18:00 +17°C° 0 mm 6 mps 748 mmHg 44%
    19:00 +16°C° 0 mm 5 mps 749 mmHg 50%
    20:00 +15°C° 0 mm 5 mps 749 mmHg 55%
    21:00 +14°C° 0 mm 4 mps 749 mmHg 58%
    22:00 +13°C° 0 mm 4 mps 750 mmHg 61%
    23:00 +11°C° 0 mm 4 mps 750 mmHg 64%

    29 June, Saturday

    Time Temperature Precipitation Wind Pressure Humidity
    00:00 +11°C° 0 mm 4 mps 750 mmHg 68%
    01:00 +10°C° 0 mm 3 mps 750 mmHg 72%
    02:00 +9°C° 0 mm 3 mps 750 mmHg 75%
    03:00 +10°C° 0 mm 3 mps 750 mmHg 75%
    04:00 +10°C° 0 mm 3 mps 750 mmHg 74%
    05:00 +10°C° 0 mm 3 mps 750 mmHg 74%
    06:00 +12°C° 0 mm 4 mps 750 mmHg 66%
    07:00 +13°C° 0 mm 4 mps 750 mmHg 58%
    08:00 +15°C° 0 mm 5 mps 750 mmHg 51%
    09:00 +16°C° 0 mm 5 mps 750 mmHg 51%
    10:00 +17°C° 0 mm 5 mps 750 mmHg 51%
    11:00 +19°C° 0 mm 5 mps 750 mmHg 52%
    12:00 +20°C° 0.1 mm 5 mps 750 mmHg 52%
    13:00 +20°C° 0.1 mm 5 mps 749 mmHg 53%
    14:00 +20°C° 0.1 mm 6 mps 749 mmHg 53%
    15:00 +20°C° 0.1 mm 6 mps 749 mmHg 54%
    16:00 +20°C° 0.1 mm 5 mps 749 mmHg 54%
    17:00 +20°C° 0.1 mm 5 mps 749 mmHg 55%
    18:00 +19°C° 0 mm 5 mps 749 mmHg 61%
    19:00 +18°C° 0 mm 4 mps 749 mmHg 68%
    20:00 +17°C° 0 mm 3 mps 750 mmHg 74%
    21:00 +16°C° 0 mm 3 mps 750 mmHg 80%
    22:00 +14°C° 0 mm 3 mps 750 mmHg 85%
    23:00 +13°C° 0 mm 2 mps 750 mmHg 90%

    30 June, Sunday

    Time Temperature Precipitation Wind Pressure Humidity
    00:00 +13°C° 0 mm 2 mps 750 mmHg 93%
    01:00 +13°C° 0 mm 2 mps 750 mmHg 95%
    02:00 +12°C° 0 mm 2 mps 750 mmHg 97%
    03:00 +12°C° 0 mm 2 mps 750 mmHg 96%
    04:00 +12°C° 0 mm 2 mps 751 mmHg 94%
    05:00 +13°C° 0 mm 2 mps 751 mmHg 93%
    06:00 +15°C° 0 mm 2 mps 751 mmHg 82%
    07:00 +17°C° 0 mm 2 mps 751 mmHg 72%
    08:00 +19°C° 0 mm 2 mps 751 mmHg 62%
    09:00 +21°C° 0 mm 2 mps 751 mmHg 57%
    10:00 +22°C° 0 mm 3 mps 751 mmHg 52%
    11:00 +25°C° 0 mm 3 mps 751 mmHg 47%
    12:00 +25°C° 0 mm 4 mps 750 mmHg 47%
    13:00 +26°C° 0 mm 4 mps 750 mmHg 48%
    14:00 +27°C° 0 mm 4 mps 749 mmHg 49%
    15:00 +27°C° 0 mm 5 mps 749 mmHg 53%
    16:00 +27°C° 0 mm 5 mps 749 mmHg 57%
    17:00 +27°C° 0 mm 5 mps 748 mmHg 62%
    18:00 +26°C° 0 mm 4 mps 748 mmHg 67%
    19:00 +23°C° 0 mm 4 mps 748 mmHg 73%
    20:00 +22°C° 0 mm 3 mps 747 mmHg 79%
    21:00 +21°C° 0 mm 3 mps 747 mmHg 81%
    22:00 +21°C° 0 mm 3 mps 747 mmHg 83%
    23:00 +20°C° 0 mm 3 mps 746 mmHg 85%

    1 July, Monday

    Time Temperature Precipitation Wind Pressure Humidity
    00:00 +20°C° 0 mm 4 mps 746 mmHg 85%
    01:00 +20°C° 0 mm 4 mps 746 mmHg 85%
    02:00 +20°C° 0 mm 4 mps 745 mmHg 85%
    03:00 +20°C° 0 mm 4 mps 745 mmHg 84%
    04:00 +20°C° 0 mm 4 mps 744 mmHg 83%
    05:00 +20°C° 0 mm 4 mps 744 mmHg 82%
    06:00 +21°C° 0 mm 4 mps 744 mmHg 78%
    07:00 +22°C° 0 mm 4 mps 744 mmHg 75%
    08:00 +23°C° 0 mm 5 mps 744 mmHg 71%
    09:00 +23°C° 0 mm 5 mps 744 mmHg 65%
    10:00 +23°C° 0 mm 5 mps 745 mmHg 59%
    11:00 +25°C° 0 mm 5 mps 745 mmHg 53%
    12:00 +25°C° 0 mm 5 mps 745 mmHg 53%
    13:00 +25°C° 0 mm 5 mps 745 mmHg 52%
    14:00 +26°C° 0 mm 6 mps 745 mmHg 51%
    15:00 +24°C° 0 mm 6 mps 745 mmHg 53%
    16:00 +24°C° 0 mm 6 mps 745 mmHg 54%
    17:00 +23°C° 0 mm 6 mps 745 mmHg 56%
    18:00 +21°C° 0 mm 5 mps 745 mmHg 62%
    19:00 +20°C° 0 mm 4 mps 745 mmHg 68%
    20:00 +18°C° 0 mm 3 mps 744 mmHg 74%
    21:00 +17°C° 0 mm 3 mps 745 mmHg 79%
    22:00 +16°C° 0 mm 3 mps 745 mmHg 83%
    23:00 +13°C° 0 mm 3 mps 745 mmHg 88%
    Show more